Welcome to the New NWS' Forecast!
Most changes are behind the scenes, but click here for differences you might notice.

Regional Weather Roundup (RWR)

Issued by Gray - Portland, ME (GYX)

                            
000
ASUS41 KGYX 172105
RWRGYX
WEATHER ROUNDUP FOR MAINE AND NEW HAMPSHIRE
NATIONAL WEATHER SERVICE GRAY ME
500 PM EDT WED OCT 17 2018

MEZ002-005-006-010-012-015-018-020-021-024-026-027-029-172200-
MAINE
  
CITY           SKY/WX    TMP DP  RH WIND       PRES   REMARKS
PORTLAND       LGT RAIN  52  38  58 W24G37    29.73R                  
SANFORD        CLOUDY    46  42  86 W8        29.74R                  
BAR HARBOR     CLOUDY    53  42  66 SW3       29.63F                  
WISCASSET      LGT RAIN  53  38  56 NW8G17    29.69R                  
ROCKLAND       CLOUDY    55  37  50 W25G33    29.65S                  
FRYEBURG       CLOUDY    49  36  61 VRB3      29.71R                  
LEWISTONAUBURN CLOUDY    51  35  54 W14G22    29.70R                  
AUGUSTA        MOCLDY    46  40  79 W9        29.69S                  
WATERVILLE     FAIR      46  40  79 W7        29.66R                  
BANGOR         LGT RAIN  45  41  86 W6        29.66R                  
GREENVILLE       N/A     43  30  60 W8        29.59S                  
MILLINOCKET    CLOUDY    46  37  71 W7        29.61S                  
HOULTON        FAIR      44  42  93 S5        29.56F                  
PRESQUE ISLE   LGT RAIN  43  38  82 W15G26    29.56R                  
FRENCHVILLE    CLOUDY    44  35  70 W9        29.52R                  
CARIBOU        LGT RAIN  44  35  70 SW13G23   29.53S                  
$$

NHZ002-005-008-009-011-012-014-172200-
NEW HAMPSHIRE
  
CITY           SKY/WX    TMP DP  RH WIND       PRES   REMARKS
PORTSMOUTH     LGT RAIN  47  42  82 W9        29.77R                  
ROCHESTER      LGT RAIN  46  42  86 VRB5      29.74R                  
NASHUA         CLOUDY    47  45  93 W3        29.81R                  
MANCHESTER     MOCLDY    49  42  77 SW8       29.78R                  
CONCORD        FAIR      46  41  82 SW8       29.76F                  
LACONIA        MOCLDY    47  39  74 SW10      29.74R                  
PLYMOUTH       MOCLDY    47  37  67 NW8       29.73R                  
BERLIN         CLOUDY    44  36  73 VRB5      29.70S                  
WHITEFIELD     CLOUDY    43  34  70 W13G20    29.73R                  
JAFFREY        CLOUDY    45  42  89 SW5       29.80R                  
KEENE          FAIR      47  40  76 VRB6      29.81S                  
LEBANON        MOCLDY    49  37  63 SW9       29.75R                  
MT WASHINGTON  SNOWSHWR  21  21 100 W46G56      N/A  VSB 0   WCI   0  
$$

VTZ005-007-008-172200-
VERMONT
  
CITY           SKY/WX    TMP DP  RH WIND       PRES   REMARKS
ST JOHNSBURY     N/A     44  35  70 MISG      29.73R                  
MONTPELIER     CLOUDY    42  35  76 NW8       29.79R                  
BURLINGTON     LGT RAIN  47  30  51 NW15G21   29.79R                  
$$

MAZ007-012-024-CTZ003-RIZ002-NYZ038-NYZ072-172200-
SOUTHERN NEW ENGLAND AND NY
  
CITY           SKY/WX    TMP DP  RH WIND       PRES   REMARKS
BOSTON         MOCLDY    61  34  36 W18G32    29.76R                  
WORCESTER      LGT RAIN  45  41  86 W17G23    29.82R                  
NANTUCKET      FAIR      59  44  57 W17G31    29.79R                  
PROVIDENCE     PTSUNNY   60  37  42 W20G26    29.79R                  
HARTFORD       LGT RAIN  55  38  52 N12G23    29.84R                  
ALBANY         FAIR      49  38  65 W14       29.88S                  
NEW YORK CITY  PTSUNNY   63  37  38 NW21G29   29.88R                  
$$

ANZ081-ANZ082-ANZ150-NHZ014-MEZ023>029-172200-
COASTAL MARINE OBSERVATIONS
  
STATION/POSITION TIME  TEMP    WIND        PRES    WAVE
                       AIR SEA DIR/SP/G            HT/PER
                 (UTC) (F)     (DEG/KT/KT) (MB)    (FT/S)
MOUNT DESERT ROC 2100   53     230/ 21/ 23 1004.0F
MATINICUS ROCK   2000   54     240/ 23/ 26 1004.0F
ISLE OF SHOALS   2000   57     270/ 16/ 18 1005.2F
JEFFREYS LEDGE   2006      57                N/A     3/ 4
$$

.............KEY..............
   WCI - WIND CHILL
   TC  - TEMPERATURE IN CELSIUS
   VSB - VISIBILITY IN MILES
   HX  - HEAT INDEX
   FAIR- INDICATES FEW OR NO CLOUDS BELOW 12,000 FT, WITH NO 
         SIGNIFICANT WEATHER AND/OR OBSTRUCTIONS TO VISIBILITY.